| time (UTC) | temp F | wind direction | speed MPH | gust MPH | rain 1hr in | rain 24hr in | rain mn in | humidity % | barometer mb |
| 20260903205104 | 65 | 60 | 0.0 | 0.0 | 0.00 | 0.00 | 0.00 | 1 | 1008.0 |
| 20260903204002 | 65 | 50 | 0.0 | 0.0 | 0.00 | 0.00 | 0.00 | 1 | 1008.1 |
| 20260903203601 | 65 | 66 | 0.0 | 1.0 | 0.00 | 0.00 | 0.00 | 1 | 1008.1 |
| 20260903203058 | 64 | 98 | 0.0 | 2.0 | 0.00 | 0.00 | 0.00 | 1 | 1008.0 |
| 20260903202545 | 64 | 61 | 0.0 | 1.0 | 0.00 | 0.00 | 0.00 | 1 | 1008.1 |
| 20260903202043 | 64 | 56 | 0.0 | 1.0 | 0.00 | 0.00 | 0.00 | 1 | 1008.1 |
| 20260903201543 | 64 | 157 | 0.0 | 3.0 | 0.00 | 0.00 | 0.00 | 1 | 1008.0 |
| 20260903201041 | 64 | 78 | 0.0 | 3.0 | 0.00 | 0.00 | 0.00 | 1 | 1008.0 |
| 20260903200539 | 61 | 58 | 0.0 | 2.0 | 0.00 | 0.00 | 0.00 | 1 | 1008.0 |
| 20260903200038 | 61 | 102 | 0.0 | 3.0 | 0.00 | 0.00 | 0.00 | 1 | 1008.1 |
| 20260903195536 | 60 | 98 | 0.0 | 3.0 | 0.00 | 0.00 | 0.00 | 1 | 1008.1 |
| 20260903195035 | 60 | 15 | 0.0 | 1.0 | 0.00 | 0.00 | 0.00 | 1 | 1008.0 |
| 20260903194542 | 59 | 52 | 0.0 | 3.0 | 0.00 | 0.00 | 0.00 | 1 | 1008.0 |
| 20260903194032 | 59 | 70 | 0.0 | 3.0 | 0.00 | 0.00 | 0.00 | 1 | 1008.1 |
| 20260903193533 | 59 | 72 | 0.0 | 4.0 | 0.00 | 0.00 | 0.00 | 1 | 1008.0 |
| 20260903193031 | 59 | 100 | 0.0 | 4.0 | 0.00 | 0.00 | 0.00 | 1 | 1007.9 |
| 20260903192527 | 59 | 98 | 0.0 | 4.0 | 0.00 | 0.00 | 0.00 | 1 | 1007.8 |
| 20260903192025 | 59 | 205 | 0.0 | 4.0 | 0.00 | 0.00 | 0.00 | 1 | 1007.8 |
| 20260903191524 | 58 | 106 | 0.0 | 2.0 | 0.00 | 0.00 | 0.00 | 1 | 1007.7 |
| 20260903191027 | 58 | 117 | 0.0 | 3.0 | 0.00 | 0.00 | 0.00 | 1 | 1007.8 |
| 20260903190522 | 57 | 52 | 0.0 | 3.0 | 0.00 | 0.00 | 0.00 | 1 | 1007.7 |
| 20260903190020 | 58 | 114 | 0.0 | 2.0 | 0.00 | 0.00 | 0.00 | 1 | 1007.7 |
| 20260903185519 | 59 | 72 | 0.0 | 2.0 | 0.00 | 0.00 | 0.00 | 1 | 1007.7 |
| 20260903185023 | 59 | 68 | 0.0 | 3.0 | 0.00 | 0.00 | 0.00 | 1 | 1007.8 |
| 20260903184519 | 59 | 112 | 0.0 | 3.0 | 0.00 | 0.00 | 0.00 | 1 | 1007.7 |
| 20260903184025 | 59 | 60 | 0.0 | 3.0 | 0.00 | 0.00 | 0.00 | 1 | 1007.7 |
| 20260903183517 | 59 | 252 | 0.0 | 3.0 | 0.00 | 0.00 | 0.00 | 1 | 1007.7 |
| 20260903183017 | 58 | 91 | 0.0 | 3.0 | 0.00 | 0.00 | 0.00 | 1 | 1007.7 |
| 20260903182515 | 58 | 112 | 0.0 | 3.0 | 0.00 | 0.00 | 0.00 | 1 | 1007.7 |
| 20260903182057 | 58 | 224 | 0.0 | 5.0 | 0.00 | 0.00 | 0.00 | 1 | 1007.7 |
| 20260903181556 | 58 | 100 | 0.0 | 5.0 | 0.00 | 0.00 | 0.00 | 1 | 1007.7 |
| 20260903181053 | 58 | 143 | 0.0 | 3.0 | 0.00 | 0.00 | 0.00 | 1 | 1007.7 |
| 20260903180552 | 58 | 78 | 0.0 | 3.0 | 0.00 | 0.00 | 0.00 | 1 | 1007.6 |
| 20260903180050 | 57 | 101 | 0.0 | 3.0 | 0.00 | 0.00 | 0.00 | 1 | 1007.5 |
| 20260903175552 | 57 | 62 | 0.0 | 3.0 | 0.00 | 0.00 | 0.00 | 1 | 1007.4 |
| 20260903175030 | 57 | 142 | 0.0 | 3.0 | 0.00 | 0.00 | 0.00 | 1 | 1007.4 |
| 20260903174529 | 57 | 235 | 0.0 | 2.0 | 0.00 | 0.00 | 0.00 | 1 | 1007.3 |
| 20260903174028 | 58 | 193 | 0.0 | 2.0 | 0.00 | 0.00 | 0.00 | 1 | 1007.2 |
| 20260903173525 | 58 | 95 | 0.0 | 2.0 | 0.00 | 0.00 | 0.00 | 1 | 1007.2 |
| 20260903173024 | 57 | 76 | 0.0 | 3.0 | 0.00 | 0.00 | 0.00 | 1 | 1007.2 |
| 20260903172522 | 57 | 94 | 0.0 | 3.0 | 0.00 | 0.00 | 0.00 | 1 | 1007.1 |
| 20260903172003 | 57 | 51 | 0.0 | 4.0 | 0.00 | 0.00 | 0.00 | 1 | 1007.1 |
| 20260903171502 | 57 | 98 | 0.0 | 4.0 | 0.00 | 0.00 | 0.00 | 1 | 1007.1 |
| 20260903171001 | 57 | 89 | 0.0 | 4.0 | 0.00 | 0.00 | 0.00 | 1 | 1007.0 |
| 20260903170600 | 57 | 54 | 1.0 | 4.0 | 0.00 | 0.00 | 0.00 | 1 | 1007.0 |
| 20260903170105 | 57 | 215 | 0.0 | 4.0 | 0.00 | 0.00 | 0.00 | 1 | 1007.0 |
| 20260903165557 | 57 | 114 | 0.0 | 4.0 | 0.00 | 0.00 | 0.00 | 1 | 1007.1 |
| 20260903165038 | 56 | 62 | 0.0 | 3.0 | 0.00 | 0.00 | 0.00 | 1 | 1007.0 |
| 20260903164538 | 56 | 46 | 0.0 | 2.0 | 0.00 | 0.00 | 0.00 | 1 | 1007.0 |
| 20260903164038 | 56 | 70 | 0.0 | 1.0 | 0.00 | 0.00 | 0.00 | 1 | 1007.0 |
| 20260903163540 | 56 | 84 | 0.0 | 1.0 | 0.00 | 0.00 | 0.00 | 1 | 1007.0 |
| 20260903163041 | 56 | 91 | 0.0 | 1.0 | 0.00 | 0.00 | 0.00 | 1 | 1007.0 |
| 20260903162533 | 56 | 144 | 0.0 | 1.0 | 0.00 | 0.00 | 0.00 | 1 | 1006.9 |
| 20260903162015 | 56 | 70 | 0.0 | 2.0 | 0.00 | 0.00 | 0.00 | 1 | 1006.9 |
| 20260903161523 | 56 | 72 | 0.0 | 2.0 | 0.00 | 0.00 | 0.00 | 1 | 1006.9 |
| 20260903161011 | 56 | 70 | 0.0 | 2.0 | 0.00 | 0.00 | 0.00 | 1 | 1007.0 |
| 20260903160511 | 55 | 61 | 0.0 | 4.0 | 0.00 | 0.00 | 0.00 | 1 | 1007.0 |
| 20260903160008 | 56 | 115 | 0.0 | 3.0 | 0.00 | 0.00 | 0.00 | 1 | 1006.9 |
| 20260903155507 | 56 | 126 | 0.0 | 3.0 | 0.00 | 0.00 | 0.00 | 1 | 1006.8 |
| 20260903155049 | 55 | 20 | 0.0 | 0.0 | 0.00 | 0.00 | 0.00 | 1 | 1006.7 |
| 20260903154554 | 55 | 68 | 0.0 | 1.0 | 0.00 | 0.00 | 0.00 | 1 | 1006.6 |
| 20260903154047 | 55 | 103 | 0.0 | 2.0 | 0.00 | 0.00 | 0.00 | 1 | 1006.7 |
| 20260903153546 | 55 | 70 | 0.0 | 1.0 | 0.00 | 0.00 | 0.00 | 1 | 1006.6 |
| 20260903153042 | 55 | 76 | 0.0 | 3.0 | 0.00 | 0.00 | 0.00 | 1 | 1006.6 |
| 20260903152541 | 55 | 63 | 0.0 | 3.0 | 0.00 | 0.00 | 0.00 | 1 | 1006.6 |
| 20260903152027 | 55 | 105 | 0.0 | 3.0 | 0.00 | 0.00 | 0.00 | 1 | 1006.6 |
| 20260903151520 | 55 | 127 | 0.0 | 1.0 | 0.00 | 0.00 | 0.00 | 1 | 1006.6 |
| 20260903151019 | 55 | 77 | 0.0 | 2.0 | 0.00 | 0.00 | 0.00 | 1 | 1006.5 |
| 20260903150521 | 55 | 68 | 0.0 | 2.0 | 0.00 | 0.00 | 0.00 | 1 | 1006.5 |
| 20260903150016 | 55 | 87 | 0.0 | 1.0 | 0.00 | 0.00 | 0.00 | 1 | 1006.4 |
| 20260903145517 | 55 | 89 | 0.0 | 2.0 | 0.00 | 0.00 | 0.00 | 1 | 1006.3 |
| 20260903145057 | 0 | 0.0 | 0.0 | 0.00 | 0.00 | 0.00 | 1006.3 | ||
| 20260903144556 | 0 | 0.0 | 0.0 | 0.00 | 0.00 | 0.00 | 1006.3 | ||
| 20260903144054 | 0 | 0.0 | 0.0 | 0.00 | 0.00 | 0.00 | 1006.3 | ||
| 20260903143553 | 0 | 0.0 | 0.0 | 0.00 | 0.00 | 0.00 | 1006.3 | ||
| 20260903143059 | 0 | 0.0 | 0.0 | 0.00 | 0.00 | 0.00 | 1006.2 | ||
| 20260903142551 | 0 | 0.0 | 0.0 | 0.00 | 0.00 | 0.00 | 1006.2 | ||
| 20260903142035 | 0 | 0.0 | 0.0 | 0.00 | 0.00 | 0.00 | 1006.2 | ||
| 20260903141530 | 0 | 0.0 | 0.0 | 0.00 | 0.00 | 0.00 | 1006.1 | ||
| 20260903141029 | 0 | 0.0 | 0.0 | 0.00 | 0.00 | 0.00 | 1006.0 | ||
| 20260903140528 | 0 | 0.0 | 0.0 | 0.00 | 0.00 | 0.00 | 1006.0 | ||
| 20260903140030 | 0 | 0.0 | 0.0 | 0.00 | 0.00 | 0.00 | 1005.9 | ||
| 20260903135525 | 0 | 0.0 | 0.0 | 0.00 | 0.00 | 0.00 | 1006.0 | ||
| 20260903135006 | 0 | 0.0 | 0.0 | 0.00 | 0.00 | 0.00 | 1005.8 | ||
| 20260903134505 | 0 | 0.0 | 0.0 | 0.00 | 0.00 | 0.00 | 1005.7 | ||
| 20260903134003 | 0 | 0.0 | 0.0 | 0.00 | 0.00 | 0.00 | 1005.6 | ||
| 20260903133504 | 0 | 0.0 | 0.0 | 0.00 | 0.00 | 0.00 | 1005.5 | ||
| 20260903133006 | 0 | 0.0 | 0.0 | 0.00 | 0.00 | 0.00 | 1005.6 | ||
| 20260903132503 | 0 | 0.0 | 0.0 | 0.00 | 0.00 | 0.00 | 1005.3 | ||
| 20260903132102 | 0 | 0.0 | 0.0 | 0.00 | 0.00 | 0.00 | 1005.4 | ||
| 20260903131601 | 0 | 0.0 | 0.0 | 0.00 | 0.00 | 0.00 | 1005.5 | ||
| 20260903131044 | 0 | 0.0 | 0.0 | 0.00 | 0.00 | 0.00 | 1005.4 | ||
| 20260903130544 | 0 | 0.0 | 0.0 | 0.00 | 0.00 | 0.00 | 1005.4 | ||
| 20260903130045 | 0 | 0.0 | 0.0 | 0.00 | 0.00 | 0.00 | 1005.4 | ||
| 20260903125543 | 0 | 0.0 | 0.0 | 0.00 | 0.00 | 0.00 | 1005.5 | ||
| 20260903125042 | 0 | 0.0 | 0.0 | 0.00 | 0.00 | 0.00 | 1005.5 | ||
| 20260903124522 | 0 | 0.0 | 0.0 | 0.00 | 0.00 | 0.00 | 1005.5 | ||
| 20260903124021 | 0 | 0.0 | 0.0 | 0.00 | 0.00 | 0.00 | 1005.6 | ||
| 20260903123519 | 0 | 0.0 | 0.0 | 0.00 | 0.00 | 0.00 | 1005.5 | ||
| 20260903123018 | 0 | 0.0 | 0.0 | 0.00 | 0.00 | 0.00 | 1005.6 | ||
| 20260903122517 | 0 | 0.0 | 0.0 | 0.00 | 0.00 | 0.00 | 1005.6 | ||
| 20260903122016 | 0 | 0.0 | 0.0 | 0.00 | 0.00 | 0.00 | 1005.5 | ||
| 20260903121622 | 0 | 0.0 | 0.0 | 0.00 | 0.00 | 0.00 | 1005.4 | ||
| 20260903121056 | 0 | 0.0 | 0.0 | 0.00 | 0.00 | 0.00 | 1005.4 | ||
| 20260903120556 | 0 | 0.0 | 0.0 | 0.00 | 0.00 | 0.00 | 1005.4 | ||
| 20260903120054 | 0 | 0.0 | 0.0 | 0.00 | 0.00 | 0.00 | 1005.3 | ||
| 20260903115552 | 0 | 0.0 | 0.0 | 0.00 | 0.00 | 0.00 | 1005.2 | ||
| 20260903115049 | 0 | 0.0 | 0.0 | 0.00 | 0.00 | 0.00 | 1005.3 | ||
| 20260903114531 | 0 | 0.0 | 0.0 | 0.00 | 0.00 | 0.00 | 1005.3 | ||
| 20260903114029 | 0 | 0.0 | 0.0 | 0.00 | 0.00 | 0.00 | 1005.3 | ||
| 20260903113527 | 0 | 0.0 | 0.0 | 0.00 | 0.00 | 0.00 | 1005.4 | ||
| 20260903113026 | 0 | 0.0 | 0.0 | 0.00 | 0.00 | 0.00 | 1005.3 | ||
| 20260903112525 | 0 | 0.0 | 0.0 | 0.00 | 0.00 | 0.00 | 1005.4 | ||
| 20260903112025 | 0 | 0.0 | 0.0 | 0.00 | 0.00 | 0.00 | 1005.4 | ||
| 20260903111505 | 0 | 0.0 | 0.0 | 0.00 | 0.00 | 0.00 | 1005.3 | ||
| 20260903111005 | 0 | 0.0 | 0.0 | 0.00 | 0.00 | 0.00 | 1005.3 | ||
| 20260903110502 | 0 | 0.0 | 0.0 | 0.00 | 0.00 | 0.00 | 1005.2 | ||
| 20260903110100 | 0 | 0.0 | 0.0 | 0.00 | 0.00 | 0.00 | 1005.1 | ||
| 20260903105559 | 0 | 0.0 | 0.0 | 0.00 | 0.00 | 0.00 | 1005.1 | ||
| 20260903105058 | 0 | 0.0 | 0.0 | 0.00 | 0.00 | 0.00 | 1005.0 | ||
| 20260903104550 | 0 | 0.0 | 0.0 | 0.00 | 0.00 | 0.00 | 1005.0 | ||
| 20260903104037 | 0 | 0.0 | 0.0 | 0.00 | 0.00 | 0.00 | 1004.9 | ||
| 20260903103536 | 0 | 0.0 | 0.0 | 0.00 | 0.00 | 0.00 | 1005.0 | ||
| 20260903103034 | 0 | 0.0 | 0.0 | 0.00 | 0.00 | 0.00 | 1005.0 | ||
| 20260903102533 | 0 | 0.0 | 0.0 | 0.00 | 0.00 | 0.00 | 1005.0 | ||
| 20260903102034 | 0 | 0.0 | 0.0 | 0.00 | 0.00 | 0.00 | 1005.0 | ||
| 20260903101517 | 0 | 0.0 | 0.0 | 0.00 | 0.00 | 0.00 | 1005.0 | ||
| 20260903101016 | 0 | 0.0 | 0.0 | 0.00 | 0.00 | 0.00 | 1005.0 | ||
| 20260903100516 | 0 | 0.0 | 0.0 | 0.00 | 0.00 | 0.00 | 1005.0 | ||
| 20260903100030 | 0 | 0.0 | 0.0 | 0.00 | 0.00 | 0.00 | 1005.0 | ||
| 20260903095512 | 0 | 0.0 | 0.0 | 0.00 | 0.00 | 0.00 | 1004.9 | ||
| 20260903095010 | 0 | 0.0 | 0.0 | 0.00 | 0.00 | 0.00 | 1004.9 | ||
| 20260903094509 | 0 | 0.0 | 0.0 | 0.00 | 0.00 | 0.00 | 1004.9 | ||
| 20260903094009 | 0 | 0.0 | 0.0 | 0.00 | 0.00 | 0.00 | 1005.0 | ||
| 20260903093508 | 0 | 0.0 | 0.0 | 0.00 | 0.00 | 0.00 | 1004.9 | ||
| 20260903093006 | 0 | 0.0 | 0.0 | 0.00 | 0.00 | 0.00 | 1004.9 | ||
| 20260903092505 | 0 | 0.0 | 0.0 | 0.00 | 0.00 | 0.00 | 1005.0 | ||
| 20260903092000 | 0 | 0.0 | 0.0 | 0.00 | 0.00 | 0.00 | 1004.9 | ||
| 20260903091604 | 0 | 0.0 | 0.0 | 0.00 | 0.00 | 0.00 | 1004.9 | ||
| 20260903091058 | 0 | 0.0 | 0.0 | 0.00 | 0.00 | 0.00 | 1004.9 | ||
| 20260903090557 | 0 | 0.0 | 0.0 | 0.00 | 0.00 | 0.00 | 1004.9 | ||
| 20260903090100 | 0 | 0.0 | 0.0 | 0.00 | 0.00 | 0.00 | 1004.9 | ||
| 20260903085556 | 0 | 0.0 | 0.0 | 0.00 | 0.00 | 0.00 | 1004.9 | ||
| 20260903085052 | 0 | 0.0 | 0.0 | 0.00 | 0.00 | 0.00 | 1004.8 | ||
| 20260903084551 | 0 | 0.0 | 0.0 | 0.00 | 0.00 | 0.00 | 1004.8 | ||
| 20260903084050 | 0 | 0.0 | 0.0 | 0.00 | 0.00 | 0.00 | 1004.8 | ||
| 20260903083549 | 0 | 0.0 | 0.0 | 0.00 | 0.00 | 0.00 | 1004.8 | ||
| 20260903083050 | 0 | 0.0 | 0.0 | 0.00 | 0.00 | 0.00 | 1004.9 | ||
| 20260903082545 | 0 | 0.0 | 0.0 | 0.00 | 0.00 | 0.00 | 1004.9 | ||
| 20260903082044 | 0 | 0.0 | 0.0 | 0.00 | 0.00 | 0.00 | 1004.9 | ||
| 20260903081525 | 0 | 0.0 | 0.0 | 0.00 | 0.00 | 0.00 | 1004.9 | ||
| 20260903081024 | 0 | 0.0 | 0.0 | 0.00 | 0.00 | 0.00 | 1004.9 | ||
| 20260903080522 | 0 | 0.0 | 0.0 | 0.00 | 0.00 | 0.00 | 1004.9 | ||
| 20260903080020 | 0 | 0.0 | 0.0 | 0.00 | 0.00 | 0.00 | 1005.0 | ||
| 20260903075524 | 0 | 0.0 | 0.0 | 0.00 | 0.00 | 0.00 | 1005.1 | ||
| 20260903075018 | 0 | 0.0 | 0.0 | 0.00 | 0.00 | 0.00 | 1005.0 | ||
| 20260903074616 | 0 | 0.0 | 0.0 | 0.00 | 0.00 | 0.00 | 1005.0 | ||
| 20260903074059 | 0 | 0.0 | 0.0 | 0.00 | 0.00 | 0.00 | 1004.8 | ||
| 20260903073557 | 0 | 0.0 | 0.0 | 0.00 | 0.00 | 0.00 | 1004.9 | ||
| 20260903073059 | 0 | 0.0 | 0.0 | 0.00 | 0.00 | 0.00 | 1004.9 | ||
| 20260903072555 | 0 | 0.0 | 0.0 | 0.00 | 0.00 | 0.00 | 1004.9 | ||
| 20260903072054 | 0 | 0.0 | 0.0 | 0.00 | 0.00 | 0.00 | 1004.9 | ||
| 20260903071555 | 0 | 0.0 | 0.0 | 0.00 | 0.00 | 0.00 | 1004.9 | ||
| 20260903071040 | 0 | 0.0 | 0.0 | 0.00 | 0.00 | 0.00 | 1004.8 | ||
| 20260903070536 | 0 | 0.0 | 0.0 | 0.00 | 0.00 | 0.00 | 1004.8 | ||
| 20260903070036 | 0 | 0.0 | 0.0 | 0.00 | 0.00 | 0.00 | 1004.8 | ||
| 20260903065534 | 0 | 0.0 | 0.0 | 0.00 | 0.00 | 0.00 | 1004.8 | ||
| 20260903065032 | 0 | 0.0 | 0.0 | 0.00 | 0.00 | 0.00 | 1004.9 | ||
| 20260903064530 | 0 | 0.0 | 0.0 | 0.00 | 0.00 | 0.00 | 1005.0 | ||
| 20260903064011 | 58 | 242 | 2.0 | 7.0 | 0.00 | 0.00 | 0.00 | 1 | 1005.0 |
| 20260903063510 | 58 | 242 | 2.0 | 7.0 | 0.00 | 0.00 | 0.00 | 1 | 1005.0 |
| 20260903063008 | 59 | 222 | 0.0 | 6.0 | 0.00 | 0.00 | 0.00 | 1 | 1004.7 |
| 20260903062509 | 59 | 207 | 0.0 | 6.0 | 0.00 | 0.00 | 0.00 | 1 | 1004.8 |
| 20260903062006 | 59 | 232 | 0.0 | 2.0 | 0.00 | 0.00 | 0.00 | 1 | 1005.0 |
| 20260903061503 | 58 | 227 | 0.0 | 2.0 | 0.00 | 0.00 | 0.00 | 1 | 1005.0 |
| 20260903061046 | 58 | 195 | 0.0 | 3.0 | 0.00 | 0.00 | 0.00 | 1 | 1005.1 |
| 20260903060545 | 58 | 227 | 0.0 | 6.0 | 0.00 | 0.00 | 0.00 | 1 | 1005.1 |
| 20260903060057 | 58 | 89 | 0.0 | 6.0 | 0.00 | 0.00 | 0.00 | 1 | 1005.1 |
| 20260903055546 | 58 | 227 | 0.0 | 3.0 | 0.00 | 0.00 | 0.00 | 1 | 1005.2 |
| 20260903055044 | 58 | 245 | 0.0 | 3.0 | 0.00 | 0.00 | 0.00 | 1 | 1005.2 |
| 20260903054544 | 58 | 56 | 0.0 | 5.0 | 0.00 | 0.00 | 0.00 | 1 | 1005.2 |
| 20260903054025 | 58 | 62 | 1.0 | 5.0 | 0.00 | 0.00 | 0.00 | 1 | 1005.2 |
| 20260903053525 | 58 | 342 | 0.0 | 0.0 | 0.00 | 0.00 | 0.00 | 1 | 1005.2 |
| 20260903053022 | 58 | 117 | 0.0 | 1.0 | 0.00 | 0.00 | 0.00 | 1 | 1005.2 |
| 20260903052526 | 58 | 222 | 0.0 | 2.0 | 0.00 | 0.00 | 0.00 | 1 | 1005.2 |
| 20260903052022 | 58 | 152 | 0.0 | 2.0 | 0.00 | 0.00 | 0.00 | 1 | 1005.2 |
| 20260903051524 | 58 | 177 | 0.0 | 5.0 | 0.00 | 0.00 | 0.00 | 1 | 1005.2 |
| 20260903051003 | 58 | 219 | 1.0 | 5.0 | 0.00 | 0.00 | 0.00 | 1 | 1005.2 |
| 20260903050502 | 58 | 222 | 0.0 | 5.0 | 0.00 | 0.00 | 0.00 | 1 | 1005.2 |
| 20260903050101 | 58 | 163 | 0.0 | 5.0 | 0.00 | 0.00 | 0.00 | 1 | 1005.2 |
| 20260903045559 | 58 | 207 | 0.0 | 2.0 | 0.00 | 0.00 | 0.00 | 1 | 1005.2 |
| 20260903045058 | 58 | 108 | 0.0 | 3.0 | 0.00 | 0.00 | 0.00 | 1 | 1005.2 |
| 20260903044558 | 58 | 200 | 0.0 | 3.0 | 0.00 | 0.00 | 0.00 | 1 | 1005.1 |
| 20260903044037 | 58 | 88 | 0.0 | 5.0 | 0.00 | 0.00 | 0.00 | 1 | 1005.1 |
| 20260903043536 | 58 | 200 | 0.0 | 6.0 | 0.00 | 0.00 | 0.00 | 1 | 1005.1 |
| 20260903043036 | 58 | 75 | 0.0 | 6.0 | 0.00 | 0.00 | 0.00 | 1 | 1005.0 |
| 20260903042532 | 59 | 228 | 0.0 | 5.0 | 0.00 | 0.00 | 0.00 | 1 | 1005.0 |
| 20260903042031 | 59 | 212 | 0.0 | 3.0 | 0.00 | 0.00 | 0.00 | 1 | 1004.9 |
| 20260903041534 | 59 | 229 | 1.0 | 3.0 | 0.00 | 0.00 | 0.00 | 1 | 1004.9 |
| 20260903041015 | 59 | 101 | 0.0 | 4.0 | 0.00 | 0.00 | 0.00 | 1 | 1004.9 |
| 20260903040509 | 59 | 172 | 0.0 | 3.0 | 0.00 | 0.00 | 0.00 | 1 | 1004.8 |
| 20260903040012 | 58 | 221 | 0.0 | 3.0 | 0.00 | 0.00 | 0.00 | 1 | 1004.8 |
| 20260903035509 | 58 | 212 | 0.0 | 6.0 | 0.00 | 0.00 | 0.00 | 1 | 1004.8 |
| 20260903035005 | 58 | 218 | 0.0 | 6.0 | 0.00 | 0.00 | 0.00 | 1 | 1004.8 |
| 20260903034503 | 58 | 167 | 0.0 | 4.0 | 0.00 | 0.00 | 0.00 | 1 | 1004.7 |
| 20260903034044 | 58 | 194 | 0.0 | 4.0 | 0.00 | 0.00 | 0.00 | 1 | 1004.7 |
| 20260903033546 | 58 | 107 | 0.0 | 4.0 | 0.00 | 0.00 | 0.00 | 1 | 1004.6 |
| 20260903033044 | 58 | 49 | 0.0 | 4.0 | 0.00 | 0.00 | 0.00 | 1 | 1004.6 |
| 20260903032539 | 57 | 233 | 0.0 | 6.0 | 0.00 | 0.00 | 0.00 | 1 | 1004.5 |
| 20260903032037 | 57 | 207 | 1.0 | 6.0 | 0.00 | 0.00 | 0.00 | 1 | 1004.5 |
| 20260903031541 | 57 | 215 | 0.0 | 5.0 | 0.00 | 0.00 | 0.00 | 1 | 1004.5 |
| 20260903031021 | 56 | 165 | 0.0 | 5.0 | 0.00 | 0.00 | 0.00 | 1 | 1004.5 |
| 20260903030516 | 56 | 222 | 0.0 | 5.0 | 0.00 | 0.00 | 0.00 | 1 | 1004.5 |
| 20260903030020 | 57 | 200 | 1.0 | 9.0 | 0.00 | 0.00 | 0.00 | 1 | 1004.5 |
| 20260903025512 | 58 | 214 | 3.0 | 9.0 | 0.00 | 0.00 | 0.00 | 1 | 1004.6 |
| 20260903025012 | 59 | 208 | 1.0 | 3.0 | 0.00 | 0.00 | 0.00 | 1 | 1004.4 |
| 20260903024510 | 58 | 222 | 0.0 | 4.0 | 0.00 | 0.00 | 0.00 | 1 | 1004.3 |
| 20260903024051 | 58 | 212 | 1.0 | 4.0 | 0.00 | 0.00 | 0.00 | 1 | 1004.3 |
| 20260903023549 | 58 | 208 | 1.0 | 4.0 | 0.00 | 0.00 | 0.00 | 1 | 1004.4 |
| 20260903023049 | 58 | 233 | 0.0 | 3.0 | 0.00 | 0.00 | 0.00 | 1 | 1004.3 |
| 20260903022548 | 58 | 225 | 0.0 | 3.0 | 0.00 | 0.00 | 0.00 | 1 | 1004.3 |
| 20260903022045 | 58 | 225 | 0.0 | 3.0 | 0.00 | 0.00 | 0.00 | 1 | 1004.4 |
| 20260903021549 | 58 | 208 | 0.0 | 5.0 | 0.00 | 0.00 | 0.00 | 1 | 1004.4 |
| 20260903021025 | 59 | 245 | 2.0 | 5.0 | 0.00 | 0.00 | 0.00 | 1 | 1004.3 |
| 20260903020524 | 59 | 219 | 0.0 | 3.0 | 0.00 | 0.00 | 0.00 | 1 | 1004.3 |
| 20260903020027 | 59 | 229 | 0.0 | 5.0 | 0.00 | 0.00 | 0.00 | 1 | 1004.3 |
| 20260903015521 | 59 | 203 | 1.0 | 5.0 | 0.00 | 0.00 | 0.00 | 1 | 1004.2 |
| 20260903015019 | 59 | 191 | 2.0 | 5.0 | 0.00 | 0.00 | 0.00 | 1 | 1004.2 |
| 20260903014518 | 58 | 173 | 1.0 | 5.0 | 0.00 | 0.00 | 0.00 | 1 | 1004.2 |
| 20260903014117 | 58 | 224 | 1.0 | 7.0 | 0.00 | 0.00 | 0.00 | 1 | 1004.2 |
| 20260903013601 | 58 | 222 | 1.0 | 8.0 | 0.00 | 0.00 | 0.00 | 1 | 1004.1 |
| 20260903013102 | 59 | 233 | 3.0 | 8.0 | 0.00 | 0.00 | 0.00 | 1 | 1004.1 |
| 20260903012555 | 59 | 211 | 1.0 | 7.0 | 0.00 | 0.00 | 0.00 | 1 | 1004.1 |
| 20260903012053 | 58 | 74 | 0.0 | 4.0 | 0.00 | 0.00 | 0.00 | 1 | 1004.1 |
| 20260903011605 | 58 | 231 | 0.0 | 3.0 | 0.00 | 0.00 | 0.00 | 1 | 1004.1 |
| 20260903011051 | 58 | 212 | 0.0 | 6.0 | 0.00 | 0.00 | 0.00 | 1 | 1004.1 |
| 20260903010532 | 59 | 236 | 1.0 | 6.0 | 0.00 | 0.00 | 0.00 | 1 | 1004.1 |
| 20260903010033 | 59 | 181 | 0.0 | 6.0 | 0.00 | 0.00 | 0.00 | 1 | 1004.1 |
| 20260903005530 | 60 | 194 | 0.0 | 8.0 | 0.00 | 0.00 | 0.00 | 1 | 1004.1 |
| 20260903005026 | 61 | 218 | 1.0 | 8.0 | 0.00 | 0.00 | 0.00 | 1 | 1004.1 |
| 20260903004529 | 61 | 227 | 0.0 | 6.0 | 0.00 | 0.00 | 0.00 | 1 | 1004.1 |
| 20260903004024 | 61 | 210 | 1.0 | 6.0 | 0.00 | 0.00 | 0.00 | 1 | 1004.1 |
| 20260903003507 | 61 | 252 | 0.0 | 7.0 | 0.00 | 0.00 | 0.00 | 1 | 1004.0 |
| 20260903003005 | 61 | 238 | 1.0 | 7.0 | 0.00 | 0.00 | 0.00 | 1 | 1004.1 |
| 20260903002505 | 61 | 259 | 2.0 | 6.0 | 0.00 | 0.00 | 0.00 | 1 | 1003.9 |
| 20260903002000 | 60 | 232 | 1.0 | 6.0 | 0.00 | 0.00 | 0.00 | 1 | 1003.9 |
| 20260903001559 | 60 | 217 | 2.0 | 7.0 | 0.00 | 0.00 | 0.00 | 1 | 1003.9 |
| 20260903001100 | 60 | 240 | 0.0 | 5.0 | 0.00 | 0.00 | 0.00 | 1 | 1003.8 |
| 20260903000539 | 60 | 223 | 1.0 | 5.0 | 0.00 | 0.00 | 0.00 | 1 | 1003.7 |
| 20260903000049 | 60 | 221 | 1.0 | 4.0 | 0.00 | 0.00 | 0.00 | 1 | 1003.6 |
| 20260902235537 | 60 | 222 | 1.0 | 4.0 | 0.00 | 0.00 | 0.00 | 1 | 1003.5 |
| 20260902235034 | 60 | 221 | 1.0 | 7.0 | 0.00 | 0.00 | 0.00 | 1 | 1003.5 |
| 20260902234533 | 60 | 221 | 2.0 | 8.0 | 0.00 | 0.00 | 0.00 | 1 | 1003.3 |
| 20260902234032 | 60 | 270 | 3.0 | 8.0 | 0.00 | 0.00 | 0.00 | 1 | 1003.2 |
| 20260902233513 | 60 | 205 | 1.0 | 6.0 | 0.00 | 0.00 | 0.00 | 1 | 1003.1 |
| 20260902233013 | 60 | 291 | 1.0 | 7.0 | 0.00 | 0.00 | 0.00 | 1 | 1002.9 |
| 20260902232511 | 60 | 194 | 2.0 | 6.0 | 0.00 | 0.00 | 0.00 | 1 | 1002.8 |
| 20260902232009 | 60 | 117 | 1.0 | 7.0 | 0.00 | 0.00 | 0.00 | 1 | 1002.5 |
| 20260902231508 | 60 | 229 | 0.0 | 6.0 | 0.00 | 0.00 | 0.00 | 1 | 1002.4 |
| 20260902231004 | 60 | 238 | 2.0 | 6.0 | 0.00 | 0.00 | 0.00 | 1 | 1002.2 |
| 20260902230549 | 60 | 224 | 1.0 | 8.0 | 0.00 | 0.00 | 0.00 | 1 | 1002.0 |
| 20260902230101 | 60 | 221 | 5.0 | 9.0 | 0.00 | 0.00 | 0.00 | 1 | 1001.9 |
| 20260902225546 | 60 | 233 | 3.0 | 5.0 | 0.00 | 0.00 | 0.00 | 1 | 1001.7 |
| 20260902225041 | 60 | 229 | 1.0 | 6.0 | 0.00 | 0.00 | 0.00 | 1 | 1001.6 |
| 20260902224540 | 59 | 231 | 1.0 | 8.0 | 0.00 | 0.00 | 0.00 | 1 | 1001.4 |
| 20260902224039 | 59 | 227 | 1.0 | 8.0 | 0.00 | 0.00 | 0.00 | 1 | 1001.2 |
| 20260902223521 | 59 | 223 | 2.0 | 8.0 | 0.00 | 0.00 | 0.00 | 1 | 1001.1 |
| 20260902223023 | 59 | 229 | 3.0 | 8.0 | 0.00 | 0.00 | 0.00 | 1 | 1001.0 |
| 20260902222519 | 59 | 233 | 4.0 | 8.0 | 0.00 | 0.00 | 0.00 | 1 | 1000.9 |
| 20260902222017 | 58 | 224 | 3.0 | 9.0 | 0.00 | 0.00 | 0.00 | 1 | 1000.7 |
| 20260902221518 | 58 | 238 | 4.0 | 9.0 | 0.00 | 0.00 | 0.00 | 1 | 1000.6 |
| 20260902221015 | 58 | 221 | 2.0 | 8.0 | 0.00 | 0.00 | 0.00 | 1 | 1000.3 |
| 20260902220556 | 58 | 236 | 2.0 | 8.0 | 0.00 | 0.00 | 0.00 | 1 | 1000.2 |
| 20260902220100 | 58 | 215 | 1.0 | 8.0 | 0.00 | 0.00 | 0.00 | 1 | 1000.0 |
| 20260902215554 | 58 | 58 | 0.0 | 4.0 | 0.00 | 0.00 | 0.00 | 1 | 999.8 |
| 20260902215051 | 58 | 77 | 0.0 | 4.0 | 0.00 | 0.00 | 0.00 | 1 | 999.7 |
| 20260902214604 | 58 | 94 | 0.0 | 3.0 | 0.00 | 0.00 | 0.00 | 1 | 999.6 |
| 20260902214049 | 58 | 70 | 0.0 | 3.0 | 0.00 | 0.00 | 0.00 | 1 | 999.7 |
| 20260902213528 | 58 | 98 | 0.0 | 3.0 | 0.00 | 0.00 | 0.00 | 1 | 999.8 |
| 20260902213028 | 58 | 70 | 0.0 | 3.0 | 0.00 | 0.00 | 0.00 | 1 | 999.8 |
| 20260902212527 | 59 | 72 | 0.0 | 4.0 | 0.00 | 0.00 | 0.00 | 1 | 999.7 |
| 20260902212025 | 58 | 51 | 1.0 | 4.0 | 0.00 | 0.00 | 0.00 | 1 | 999.8 |
| 20260902211522 | 58 | 356 | 0.0 | 4.0 | 0.00 | 0.00 | 0.00 | 1 | 999.8 |
| 20260902211022 | 58 | 36 | 0.0 | 4.0 | 0.00 | 0.00 | 0.00 | 1 | 999.9 |
| 20260902210503 | 58 | 79 | 1.0 | 4.0 | 0.00 | 0.00 | 0.00 | 1 | 999.9 |
| 20260902210006 | 58 | 86 | 0.0 | 7.0 | 0.00 | 0.00 | 0.00 | 1 | 999.9 |
| 20260902205600 | 58 | 52 | 0.0 | 7.0 | 0.00 | 0.00 | 0.00 | 1 | 1000.1 |